ALOUETTE 1 (S-27) 1 00424U 62049A 10075.83413709 .00000051 00000-0 48730-4 0 3603 2 00424 80.4641 5.7327 0024450 63.9753 296.3901 13.68730090368999 IUE 1 10637U 78012A 10074.86594524 -.00000150 00000-0 10000-3 0 5773 2 10637 43.2701 11.7424 1523957 158.4176 208.7615 1.00054867 70174 IRAS 1 13777U 83004A 10076.56323528 -.00000133 00000-0 -59859-4 0 1416 2 13777 99.0590 272.2433 0023031 165.6089 194.5740 14.00102439 55853 AKEBONO (EXOS-D) 1 19822U 89016A 10075.80708811 .00027926 13787-6 86415-3 0 4723 2 19822 75.0751 46.6560 2677664 1.1671 359.4043 10.04733670622762 INTERCOSMOS 24 1 20261U 89080A 10076.66184537 .00000240 00000-0 62879-4 0 1152 2 20261 82.5829 282.6270 1215837 72.0130 300.9480 12.53471410933843 COBE 1 20322U 89089A 10076.57197283 .00000348 00000-0 24614-3 0 1446 2 20322 98.9971 81.1704 0009287 83.8455 276.3766 14.04391765 41545 HST 1 20580U 90037B 10074.55805056 .00000594 00000-0 32686-4 0 5364 2 20580 28.4690 131.0720 0003256 281.9683 78.0554 15.00920402890675 ROSAT 1 20638U 90049A 10076.77654155 .00014013 00000-0 15699-3 0 9267 2 20638 52.9935 179.0925 0003713 119.4908 240.6474 15.63016824102548 CRRES 1 20712U 90065A 10074.79107324 -.00000683 00000-0 -38335-3 0 419 2 20712 18.2619 323.0952 7128353 271.6295 15.2750 2.42815313163690 SARA 1 21578U 91050E 10076.73365853 .00000188 00000-0 59248-4 0 7832 2 21578 98.2641 47.1924 0003695 71.2771 288.8818 14.50537272984077 UARS 1 21701U 91063B 10075.97276474 .00011566 00000-0 13759-3 0 9198 2 21701 56.9700 245.3855 0066551 352.0362 7.9636 15.59042935 21700 SAMPEX 1 22012U 92038A 10076.32697332 .00009076 00000-0 21563-3 0 1521 2 22012 81.6379 351.8996 0046404 33.6478 326.7688 15.40347975976437 ORBVIEW 1 (MICROLAB) 1 23547U 95017C 10076.63750705 .00000217 00000-0 64508-4 0 2091 2 23547 69.9804 280.8386 0013535 235.9521 124.0332 14.55573067792408 RXTE (XTE) 1 23757U 95074A 10076.69064340 .00002913 00000-0 87391-4 0 836 2 23757 22.9820 245.7810 0008635 174.7496 185.3073 15.27782979787642 FAST 1 24285U 96049A 10076.82330304 .00002301 00000-0 20223-3 0 8601 2 24285 82.9659 281.0732 1995603 6.7046 355.6877 11.26871364549346 TRACE 1 25280U 98020A 10076.14810934 .00000443 00000-0 41238-4 0 4673 2 25280 97.6594 286.1358 0024450 57.7777 302.5802 14.98995207651946 SAFIR 2 1 25399U 98043F 10076.88760544 -.00000040 00000-0 39181-6 0 5818 2 25399 98.3122 97.0704 0002800 102.0951 258.0544 14.23955960607308 SWAS 1 25560U 98071A 10075.88596622 .00000261 00000-0 38629-4 0 1962 2 25560 69.9003 46.6178 0010358 208.3586 151.7009 14.86972328610907 ASTRID 2 1 25568U 98072B 10076.30390833 .00000109 00000-0 10304-3 0 3170 2 25568 82.9495 138.3177 0026004 21.0258 339.1958 13.72008747564119 ORSTED 1 25635U 99008B 10076.50291569 .00000134 00000-0 40867-4 0 8680 2 25635 96.4668 207.7414 0144251 40.8383 320.3525 14.45866096583230 SUNSAT (SO-35) 1 25636U 99008C 10075.75718750 .00000042 00000-0 18432-4 0 5591 2 25636 96.4734 199.4543 0149567 78.8482 282.9494 14.43492557582424 WIRE 1 25646U 99011A 10076.36388713 .00019768 00000-0 22833-3 0 685 2 25646 97.2626 352.0865 0006202 170.5998 189.5377 15.61915858617648 ABRIXAS 1 25721U 99022A 10076.87028221 .00000617 00000-0 42074-4 0 7974 2 25721 48.4367 14.1939 0020342 5.5679 354.5465 15.20561071602100 TERRIERS 1 25735U 99026A 10075.67740982 .00000867 00000-0 38390-4 0 9565 2 25735 97.1830 303.0574 0007135 162.5308 197.6183 15.24156883600380 FUSE 1 1 25791U 99035A 10075.46287204 .00000243 00000-0 18893-4 0 6557 2 25791 24.9854 98.7504 0010395 252.6546 107.2832 14.41816384565738 CXO 1 25867U 99040B 10076.45833333 .00000243 00000-0 10000-3 0 4398 2 25867 66.6943 57.9815 8017560 275.2560 351.8592 0.37808501 6048 CLEMENTINE 1 25978U 99064B 10076.71345234 .00000037 00000-0 10858-4 0 8997 2 25978 98.1158 161.7959 0009920 322.7738 37.2820 14.85612345556529 XMM-NEWTON 1 25989U 99066A 10076.20833333 .00000367 00000-0 10000-3 0 8216 2 25989 60.1768 94.7814 5993942 107.5504 352.9403 0.50145553 7606 TERRA 1 25994U 99068A 10076.68986149 .00000057 00000-0 22621-4 0 6048 2 25994 98.2104 152.6406 0000628 96.7744 263.3522 14.57112051544982 ACRIMSAT 1 26033U 99070B 10076.50240050 .00000097 00000-0 29069-4 0 9030 2 26033 97.9404 313.7034 0029737 59.2667 301.1457 14.60589752545443 IMAGE 1 26113U 00017A 10074.51162787 .00000319 00000-0 10000-3 0 9313 2 26113 91.3894 215.2195 7297296 254.0793 20.9724 1.68637950 61394 CLUSTER II-FM6 1 26410U 00041A 10076.12500000 .00001264 00000-0 00000-0 0 4639 2 26410 123.6784 207.9259 8795079 41.6711 354.1258 0.44207550 5779 CLUSTER II-FM7 1 26411U 00041B 10076.12500000 .00001263 00000-0 00000-0 0 4729 2 26411 123.6848 207.9208 8791195 41.7236 354.4564 0.44209345 5859 CLUSTER II-FM5 1 26463U 00045A 10076.12500000 .00001124 00000-0 00000-0 0 4603 2 26463 125.6692 209.1533 8646231 40.3420 354.5835 0.44209492 6351 CLUSTER II-FM8 1 26464U 00045B 10076.12500000 .00000398 00000-0 00000+0 0 4559 2 26464 117.3818 196.5116 8827322 33.6779 354.0537 0.44207201 5742 MEGSAT-1 1 26546U 00057B 10076.13940472 .00000138 00000-0 34203-4 0 9313 2 26546 64.5574 304.5695 0039672 233.9675 125.7773 14.84314133512697 HETE-2 1 26561U 00061A 10073.40364226 .00001321 00000-0 44014-4 0 5287 2 26561 1.9490 21.3233 0023650 34.6035 325.5597 14.96197268515646 MUNIN 1 26621U 00075C 10076.44482591 .00000738 00000-0 67530-3 0 7901 2 26621 95.4143 322.0935 0717554 53.1686 313.3091 13.03720288443316 ODIN 1 26702U 01007A 10075.69012442 .00000824 00000-0 78857-4 0 9584 2 26702 97.6940 96.6142 0002438 291.3764 68.7153 14.95850234494199 TIMED 1 26998U 01055B 10076.68434109 .00000221 00000-0 30742-4 0 5265 2 26998 74.0747 169.1031 0001772 228.2433 131.8596 14.84146507448095 RHESSI 1 27370U 02004A 10076.86401810 .00000925 00000-0 76404-4 0 2722 2 27370 38.0401 341.9417 0016846 250.4807 109.4134 15.02405189444905 INTEGRAL 1 27540U 02048A 10074.20833333 .00000117 00000-0 10000-3 0 9060 2 27540 84.3042 345.9433 8632063 257.7250 353.5427 0.33401043 5202 FEDSAT 1 27598U 02056B 10076.59208583 .00000002 00000-0 17503-4 0 283 2 27598 98.3366 121.7528 0009855 143.2735 216.9134 14.28028512378261 WEOS 1 27599U 02056C 10075.76509048 -.00000045 00000-0 -15469-5 0 382 2 27599 98.3584 127.2614 0010396 157.1689 202.9960 14.28587807378286 MICRO LABSAT 1 27600U 02056D 10076.08077452 .00000109 00000-0 59578-4 0 40 2 27600 98.3512 127.1137 0011293 159.6186 200.5449 14.28881651378410 CORIOLIS 1 27640U 03001A 10075.94237454 -.00000156 00000-0 -54418-4 0 2199 2 27640 98.7529 83.3349 0014162 356.5169 3.5919 14.18365545372326 CHIPSAT 1 27643U 03002B 10076.52267418 .00001146 00000-0 99776-4 0 3310 2 27643 94.0100 89.2015 0010389 207.6831 152.3842 14.97406140391869 SORCE 1 27651U 03004A 10076.75976552 .00000228 00000-0 43838-4 0 1510 2 27651 39.9954 244.4097 0023913 87.2308 273.1214 14.82282683386896 GALEX 1 27783U 03017A 10076.23628953 .00000213 00000-0 22206-4 0 8957 2 27783 28.9993 37.3135 0004113 251.0306 108.9851 14.59805692367712 MOST 1 27843U 03031D 10076.65494208 -.00000006 00000-0 17526-4 0 7971 2 27843 98.7206 85.5458 0010806 84.8723 275.3688 14.20132186347999 QUAKESAT 1 27845U 03031F 10076.55887297 .00000114 00000-0 73712-4 0 7750 2 27845 98.7195 86.3132 0009854 92.5379 267.6937 14.20334878347971 AAU CUBESAT 1 27846U 03031G 10076.44870705 .00000070 00000-0 52519-4 0 7062 2 27846 98.7042 87.6317 0010337 55.9813 304.2354 14.21022163348150 SCISAT 1 1 27858U 03036A 10076.26013613 .00000150 00000-0 27579-4 0 9774 2 27858 73.9367 4.9244 0007928 352.2034 7.9016 14.74844171354977 KAISTSAT 4 1 27945U 03042G 10075.79921095 .00000075 00000-0 23275-4 0 9176 2 27945 97.9094 306.2113 0012503 4.9154 355.2193 14.63177086345448 GP-B 1 28230U 04014A 10076.66024458 .00000203 00000-0 27243-4 0 7370 2 28230 89.9401 156.0827 0001850 89.6502 270.4966 14.76026895318117 DEMETER 1 28368U 04025C 10076.67821845 .00000081 00000-0 21410-4 0 4786 2 28368 97.9744 141.2653 0001349 93.1726 266.9645 14.70127867305904 DOUBLESTAR (TC-2) 1 28382U 04029A 10076.36428644 -.00000650 00000-0 -10409-1 0 3070 2 28382 89.1299 333.3105 7275575 238.7530 339.5765 2.11733045 43424 SWIFT 1 28485U 04047A 10075.53228987 .00001154 00000-0 70619-4 0 5320 2 28485 20.5578 129.5627 0014641 194.1656 165.8384 14.92690148290411 SUZAKU (ASTRO-EII) 1 28773U 05025A 10076.90593383 .00000835 00000-0 58286-4 0 2085 2 28773 31.4055 335.1426 0006083 21.6704 338.4196 15.00983548257368 AKARI (ASTRO-F) 1 28939U 06005A 10076.14665557 .00000128 00000-0 38132-4 0 2316 2 28939 98.2529 82.0425 0009165 58.8591 301.3504 14.57605740215852 FORMOSAT-3 FM6 1 29047U 06011A 10076.72927676 -.00004051 00000-0 -16230-2 0 1909 2 29047 71.9806 184.4725 0051561 32.3401 328.0590 14.27079567206752 FORMOSAT-3 FM1 1 29048U 06011B 10076.47826246 .00000390 00000-0 17471-3 0 2408 2 29048 71.9697 100.1339 0045234 342.2032 17.7500 14.27143941209192 FORMOSAT-3 FM5 1 29049U 06011C 10075.86285168 .00000361 00000-0 16364-3 0 1871 2 29049 72.0187 251.9838 0034912 45.0820 315.3133 14.27156518204886 FORMOSAT-3 FM3 1 29050U 06011D 10076.04441044 .00001102 00000-0 26646-3 0 4704 2 29050 72.0091 45.0448 0054395 270.2487 89.2407 14.54148742210900 FORMOSAT-3 FM4 1 29051U 06011E 10075.75476884 .00000373 00000-0 16522-3 0 2442 2 29051 72.0084 160.7443 0071247 275.3611 83.9388 14.27151144207458 FORMOSAT-3 FM2 1 29052U 06011F 10075.87266237 .00000360 00000-0 16273-3 0 2657 2 29052 72.0338 223.4219 0040977 13.8449 346.3743 14.27163939205778 CLOUDSAT 1 29107U 06016A 10076.71139083 .00000093 00000-0 30588-4 0 2283 2 29107 98.1886 21.7509 0001159 90.7171 269.4133 14.57117733206708 CALIPSO 1 29108U 06016B 10076.71160399 .00000234 00000-0 61908-4 0 2386 2 29108 98.1890 21.8006 0001191 88.6081 271.5239 14.57117719206681 HINODE (SOLAR-B) 1 29479U 06041A 10075.75755557 .00000089 00000-0 26623-4 0 1128 2 29479 98.0895 79.9289 0014388 258.3594 101.5973 14.62961762185831 SJ-6C 1 29505U 06046A 10076.71082633 .00000359 00000-0 42044-4 0 8131 2 29505 97.6927 81.4637 0001886 235.7517 124.3532 14.90718541184839 SJ-6D 1 29506U 06046B 10076.67495001 -.00000302 00000-0 -25804-4 0 8038 2 29506 97.6961 80.3442 0001213 340.0106 20.1049 14.90014992184743 COROT 1 29678U 06063A 10076.37624676 .00000089 00000-0 54634-4 0 671 2 29678 89.9362 9.9822 0006271 34.4904 325.6701 13.98124882164282 AIM 1 31304U 07015A 10075.80703309 .00000265 00000-0 31409-4 0 9867 2 31304 97.8015 178.9403 0012525 43.1357 317.0855 14.92371023157456 FGRST (GLAST) 1 33053U 08029A 10076.04183091 .00000278 00000-0 00000+0 0 4613 2 33053 25.5891 306.9066 0013711 27.8378 332.3003 15.05025694 97034 KORONAS-FOTON 1 33504U 09003A 10075.76058510 .00001153 00000-0 78245-4 0 3132 2 33504 82.4795 319.4510 0014131 228.7502 131.2509 15.05415183 61710 TATIANA 2 1 35868U 09049D 10075.84354214 .00000177 00000-0 10000-3 0 1571 2 35868 98.7698 130.3299 0003474 259.2896 100.7840 14.22100085 25601 UGATUSAT 1 35869U 09049E 10076.70264075 .00000176 00000-0 10000-3 0 1549 2 35869 98.7687 131.1342 0003833 272.1975 87.8732 14.21977226 25725 SUMBANDILA (SO-67) 1 35870U 09049F 10076.71699211 .00001051 00000-0 48443-4 0 5467 2 35870 97.3428 128.1267 0009591 26.4973 121.4908 15.22394626 27543 WISE 1 36119U 09071A 10076.19451380 .00001143 00000-0 69514-4 0 766 2 36119 97.5081 82.0262 0002243 148.6966 211.4399 15.12429075 13990 SDO 1 36395U 10005A 10076.60000000 -.00000050 00000-0 00000+0 0 426 2 36395 28.1150 189.1650 0000750 279.4830 179.5420 1.00277440 542